Location: Shenandoah County Park
(38.9356°N, 78.4524°W)
Time: 12:34:14
(UTC-04:00)

Envisat - Pass Details

Date: 30 May 2024
Orbit: 762 x 764 km, 98.3° (Epoch: 14 June)

Event Time Altitude Azimuth Distance (km) Brightness Sun altitude
Rises 03:11:31 0° 34° (NE) 3,231 7.7 -23.0°
Reaches altitude 10° 03:14:59 10° 59° (ENE) 2,299 6.3 -22.7°
Maximum altitude 03:17:37 14° 91° (E) 2,019 5.5 -22.4°
Drops below altitude 10° 03:20:15 10° 123° (ESE) 2,291 5.5 -22.1°
Enters shadow 03:22:17 - 139° (SE) 2,789 5.7 -21.9°
